Weather History for Ely, MN

Change the Weather History Date:

Saturday, May 12, 2012

  Actual Average Record
Temperature  
Mean Temperature 48 °F -  
Max Temperature 66 °F 58 °F 66 °F (1998)
Min Temperature 30 °F 35 °F 24 °F (1997)
Degree Days  
Heating Degree Days 17    
Moisture  
Dew Point 24 °F    
Average Humidity 43    
Maximum Humidity 93    
Minimum Humidity 14    
Precipitation  
Precipitation 0.00 in - - ()
Sea Level Pressure  
Sea Level Pressure 30.22 in    
Wind  
Wind Speed 5 mph (WSW)    
Max Wind Speed 20 mph    
Max Gust Speed 31 mph    
Visibility 10 miles    
Events      
Averages and records for this station are not official NWS values.
T = Trace of Precipitation, MM = Missing Value Source: NWS Daily Summary

Daily Weather History Graph

Daily Weather History Graph

Search for Another Location

Airport:

Trip Planner

Search our weather history database for the weather conditions in past years. The results will help you decide how hot, cold, wet, or windy it might be!

Date:

Astronomy

May. 12, 2012 Rise Set
Actual Time 5:32 AM CDT 8:35 PM CDT
Civil Twilight 4:55 AM CDT 9:12 PM CDT
Nautical Twilight 4:08 AM CDT 9:59 PM CDT
Astronomical Twilight 3:11 AM CDT 10:58 PM CDT
Moon 1:41 AM CDT (5/12) 12:22 PM CDT (5/12)
Length of Visible Light 16h 16m
Length of Day
15h 03m
Waning Gibbous, 52% of the Moon is Illuminated
May 12
Waning Gibbous
May 12
Last Quarter
May 20
New
May 28
First Quarter
Jun 4
Full

Hourly Weather History & Observations

Time (CDT) Temp. Windchill Dew Point Humidity Pressure Visibility Wind Dir Wind Speed Gust Speed Precip Events Conditions
12:12 AM 37.4 °F - 32.0 °F 81% 30.17 in 10.0 mi Calm Calm - N/A   Clear
12:32 AM 35.6 °F - 32.0 °F 87% 30.18 in 10.0 mi Calm Calm - N/A   Clear
12:52 AM 35.6 °F - 32.0 °F 87% 30.19 in 10.0 mi Calm Calm - N/A   Clear
1:13 AM 33.8 °F - 30.2 °F 87% 30.19 in 10.0 mi Calm Calm - N/A   Clear
1:32 AM 33.8 °F - 30.2 °F 87% 30.19 in 10.0 mi Calm Calm - N/A   Clear
1:53 AM 33.8 °F - 30.2 °F 87% 30.20 in 10.0 mi Calm Calm - N/A   Clear
2:13 AM 33.8 °F - 30.2 °F 87% 30.20 in 10.0 mi Calm Calm - N/A   Clear
2:32 AM 32.0 °F - 30.2 °F 93% 30.21 in 10.0 mi Calm Calm - N/A   Clear
2:53 AM 32.0 °F - 30.2 °F 93% 30.21 in 10.0 mi Calm Calm - N/A   Clear
3:13 AM 30.2 °F - 28.4 °F 93% 30.21 in 10.0 mi Calm Calm - N/A   Clear
3:32 AM 30.2 °F - 28.4 °F 93% 30.22 in 10.0 mi Calm Calm - N/A   Clear
3:53 AM 33.8 °F 30.8 °F 30.2 °F 87% 30.22 in 10.0 mi SSW 3.5 mph - N/A   Clear
4:13 AM 33.8 °F - 30.2 °F 87% 30.23 in 10.0 mi Calm Calm - N/A   Clear
4:32 AM 33.8 °F - 30.2 °F 87% 30.23 in 10.0 mi Calm Calm - N/A   Clear
4:53 AM 33.8 °F - 28.4 °F 81% 30.23 in 10.0 mi Calm Calm - N/A   Clear
5:13 AM 33.8 °F - 28.4 °F 81% 30.24 in 10.0 mi Calm Calm - N/A   Clear
5:32 AM 33.8 °F - 28.4 °F 81% 30.25 in 10.0 mi Calm Calm - N/A   Clear
5:53 AM 33.8 °F - 28.4 °F 81% 30.25 in 10.0 mi Calm Calm - N/A   Clear
6:12 AM 33.8 °F - 28.4 °F 81% 30.26 in 10.0 mi Calm Calm - N/A   Clear
6:32 AM 35.6 °F - 28.4 °F 75% 30.27 in 10.0 mi Calm Calm - N/A   Clear
6:53 AM 35.6 °F 32.8 °F 30.2 °F 81% 30.27 in 10.0 mi SW 3.5 mph - N/A   Clear
7:12 AM 39.2 °F 35.9 °F 30.2 °F 70% 30.28 in 10.0 mi SW 4.6 mph - N/A   Clear
7:32 AM 42.8 °F 40.1 °F 30.2 °F 61% 30.28 in 10.0 mi SW 4.6 mph - N/A   Clear
7:53 AM 46.4 °F 44.3 °F 30.2 °F 53% 30.28 in 10.0 mi SW 4.6 mph - N/A   Clear
8:12 AM 48.2 °F - 30.2 °F 50% 30.28 in 10.0 mi SW 5.8 mph - N/A   Clear
8:32 AM 51.8 °F - 28.4 °F 41% 30.28 in 10.0 mi SW 4.6 mph - N/A   Clear
8:53 AM 53.6 °F - 26.6 °F 35% 30.29 in 10.0 mi WSW 8.1 mph - N/A   Clear
9:13 AM 55.4 °F - 24.8 °F 31% 30.29 in 10.0 mi WSW 8.1 mph - N/A   Clear
9:32 AM 57.2 °F - 24.8 °F 29% 30.28 in 10.0 mi WSW 8.1 mph - N/A   Clear
9:53 AM 59.0 °F - 23.0 °F 25% 30.28 in 10.0 mi West 12.7 mph 18.4 mph N/A   Clear
10:12 AM 60.8 °F - 21.2 °F 22% 30.28 in 10.0 mi West 15.0 mph 20.7 mph N/A   Clear
10:32 AM 59.0 °F - 21.2 °F 23% 30.28 in 10.0 mi West 9.2 mph 21.9 mph N/A   Clear
10:53 AM 60.8 °F - 17.6 °F 19% 30.28 in 10.0 mi West 12.7 mph 20.7 mph N/A   Clear
11:13 AM 60.8 °F - 17.6 °F 19% 30.28 in 10.0 mi WNW 16.1 mph 20.7 mph N/A   Clear
11:32 AM 60.8 °F - 21.2 °F 22% 30.27 in 10.0 mi WSW 12.7 mph 18.4 mph N/A   Clear
11:53 AM 60.8 °F - 21.2 °F 22% 30.27 in 10.0 mi West 10.4 mph 19.6 mph N/A   Clear
12:13 PM 62.6 °F - 21.2 °F 20% 30.26 in 10.0 mi West 11.5 mph 20.7 mph N/A   Clear
12:32 PM 62.6 °F - 21.2 °F 20% 30.25 in 10.0 mi WSW 13.8 mph 23.0 mph N/A   Clear
12:53 PM 62.6 °F - 21.2 °F 20% 30.25 in 10.0 mi West 11.5 mph 16.1 mph N/A   Clear
1:12 PM 64.4 °F - 21.2 °F 19% 30.24 in 10.0 mi West 11.5 mph 24.2 mph N/A   Clear
1:32 PM 64.4 °F - 21.2 °F 19% 30.24 in 10.0 mi West 10.4 mph 25.3 mph N/A   Clear
1:53 PM 66.2 °F - 21.2 °F 18% 30.23 in 10.0 mi WNW 10.4 mph 19.6 mph N/A   Clear
2:13 PM 66.2 °F - 19.4 °F 17% 30.23 in 10.0 mi WSW 13.8 mph 24.2 mph N/A   Clear
2:32 PM 66.2 °F - 19.4 °F 17% 30.22 in 10.0 mi West 16.1 mph 27.6 mph N/A   Clear
2:53 PM 66.2 °F - 19.4 °F 17% 30.21 in 10.0 mi West 16.1 mph 26.5 mph N/A   Clear
3:12 PM 66.2 °F - 19.4 °F 17% 30.21 in 10.0 mi WSW 19.6 mph 28.8 mph N/A   Clear
3:32 PM 66.2 °F - 19.4 °F 17% 30.21 in 10.0 mi West 17.3 mph 25.3 mph N/A   Clear
3:53 PM 66.2 °F - 19.4 °F 17% 30.20 in 10.0 mi West 12.7 mph 27.6 mph N/A   Clear
4:12 PM 66.2 °F - 17.6 °F 15% 30.19 in 10.0 mi West 10.4 mph 24.2 mph N/A   Clear
4:32 PM 66.2 °F - 17.6 °F 15% 30.19 in 10.0 mi WNW 12.7 mph 31.1 mph N/A   Clear
4:53 PM 66.2 °F - 17.6 °F 15% 30.19 in 10.0 mi West 12.7 mph 21.9 mph N/A   Clear
5:12 PM 66.2 °F - 15.8 °F 14% 30.19 in 10.0 mi NW 15.0 mph 24.2 mph N/A   Clear
5:33 PM 66.2 °F - 17.6 °F 15% 30.19 in 10.0 mi WNW 11.5 mph 17.3 mph N/A   Clear
5:53 PM 66.2 °F - 17.6 °F 15% 30.18 in 10.0 mi West 16.1 mph 25.3 mph N/A   Clear
6:12 PM 66.2 °F - 17.6 °F 15% 30.18 in 10.0 mi West 10.4 mph 16.1 mph N/A   Clear
6:33 PM 66.2 °F - 17.6 °F 15% 30.18 in 10.0 mi West 13.8 mph 23.0 mph N/A   Clear
6:53 PM 64.4 °F - 17.6 °F 16% 30.18 in 10.0 mi WNW 15.0 mph 19.6 mph N/A   Clear
7:12 PM 64.4 °F - 19.4 °F 18% 30.18 in 10.0 mi West 9.2 mph - N/A   Clear
7:33 PM 64.4 °F - 19.4 °F 18% 30.18 in 10.0 mi West 4.6 mph - N/A   Clear
7:52 PM 62.6 °F - 19.4 °F 19% 30.18 in 10.0 mi West 5.8 mph 9.2 mph N/A   Clear
8:12 PM 62.6 °F - 21.2 °F 20% 30.18 in 10.0 mi West 4.6 mph - N/A   Clear
8:33 PM 60.8 °F - 21.2 °F 22% 30.18 in 10.0 mi WSW 3.5 mph - N/A   Clear
8:52 PM 60.8 °F - 21.2 °F 22% 30.18 in 10.0 mi Calm Calm - N/A   Clear
9:12 PM 55.4 °F - 23.0 °F 29% 30.18 in 10.0 mi SSW 3.5 mph - N/A   Clear
9:33 PM 51.8 °F - 24.8 °F 35% 30.19 in 10.0 mi Calm Calm - N/A   Clear
9:52 PM 53.6 °F - 23.0 °F 30% 30.19 in 10.0 mi SSW 3.5 mph - N/A   Clear
10:12 PM 51.8 °F - 24.8 °F 35% 30.18 in 10.0 mi SSW 3.5 mph - N/A   Clear
10:33 PM 51.8 °F - 24.8 °F 35% 30.19 in 10.0 mi SSW 4.6 mph - N/A   Clear
10:52 PM 51.8 °F - 24.8 °F 35% 30.18 in 10.0 mi SSW 3.5 mph - N/A   Clear
11:12 PM 46.4 °F 43.5 °F 26.6 °F 46% 30.18 in 10.0 mi SSW 5.8 mph - N/A   Clear
11:33 PM 50.0 °F - 26.6 °F 40% 30.18 in 10.0 mi SSW 4.6 mph - N/A   Clear
11:52 PM 44.6 °F 43.1 °F 28.4 °F 53% 30.18 in 10.0 mi SSW 3.5 mph - N/A   Clear